TimeCDT,TemperatureF,Dew PointF,Humidity,Sea Level PressureIn,VisibilityMPH,Wind Direction,Wind SpeedMPH,Gust SpeedMPH,PrecipitationIn,Events,Conditions,WindDirDegrees,DateUTC
12:53 AM,64.0,53.1,67,29.92,10.0,SE,5.8,-,N/A,,Clear,130,2013-04-29 05:53:00
1:53 AM,64.0,52.0,65,29.91,10.0,SE,8.1,-,N/A,,Clear,130,2013-04-29 06:53:00
2:53 AM,62.1,53.1,72,29.90,10.0,SE,6.9,-,N/A,,Clear,130,2013-04-29 07:53:00
3:53 AM,59.0,53.1,81,29.89,10.0,Calm,Calm,-,N/A,,Clear,0,2013-04-29 08:53:00
4:53 AM,55.0,53.1,93,29.90,10.0,Calm,Calm,-,N/A,,Clear,0,2013-04-29 09:53:00
5:53 AM,54.0,52.0,93,29.90,10.0,Calm,Calm,-,N/A,,Clear,0,2013-04-29 10:53:00
6:53 AM,57.0,54.0,89,29.91,10.0,Calm,Calm,-,N/A,,Clear,0,2013-04-29 11:53:00
7:53 AM,61.0,55.9,83,29.94,10.0,Calm,Calm,-,N/A,,Clear,0,2013-04-29 12:53:00
8:53 AM,69.1,62.1,78,29.95,10.0,SW,6.9,-,N/A,,Clear,230,2013-04-29 13:53:00
9:53 AM,73.0,63.0,71,29.95,10.0,WSW,4.6,-,N/A,,Clear,240,2013-04-29 14:53:00
10:53 AM,75.9,63.0,64,29.96,10.0,Variable,4.6,-,N/A,,Clear,0,2013-04-29 15:53:00
11:53 AM,79.0,62.1,56,29.94,10.0,Variable,6.9,-,N/A,,Clear,0,2013-04-29 16:53:00
12:53 PM,81.0,62.1,52,29.92,10.0,SSE,8.1,-,N/A,,Clear,160,2013-04-29 17:53:00
1:53 PM,82.0,62.1,51,29.90,10.0,South,8.1,16.1,N/A,,Partly Cloudy,180,2013-04-29 18:53:00
2:53 PM,84.0,60.1,44,29.88,10.0,South,10.4,-,N/A,,Clear,180,2013-04-29 19:53:00
3:53 PM,84.0,57.9,41,29.86,10.0,SW,9.2,16.1,N/A,,Clear,230,2013-04-29 20:53:00
4:53 PM,84.9,55.9,37,29.84,10.0,SSW,12.7,18.4,N/A,,Partly Cloudy,200,2013-04-29 21:53:00
5:53 PM,82.9,55.9,39,29.83,10.0,SSE,8.1,-,N/A,,Partly Cloudy,160,2013-04-29 22:53:00
6:53 PM,81.0,57.0,44,29.83,10.0,SSE,5.8,-,N/A,,Clear,150,2013-04-29 23:53:00
7:53 PM,73.9,59.0,59,29.83,10.0,SSE,4.6,-,N/A,,Clear,160,2013-04-30 00:53:00
8:53 PM,70.0,57.0,63,29.85,10.0,SSE,4.6,-,N/A,,Clear,160,2013-04-30 01:53:00
9:53 PM,73.9,53.1,48,29.86,10.0,South,8.1,-,N/A,,Clear,170,2013-04-30 02:53:00
10:53 PM,72.0,53.1,51,29.86,10.0,South,8.1,-,N/A,,Clear,180,2013-04-30 03:53:00
11:53 PM,70.0,53.1,55,29.86,10.0,South,6.9,-,N/A,,Clear,180,2013-04-30 04:53:00